Location: Asheville, NC
(35.6000°N, 82.5500°W)
Time: 14:45:49
(UTC-05:00)

XW-2F - Visible Passes

Search period start: 17 January 2018 00:00
Search period end: 27 January 2018 00:00
Orbit: 507 x 528 km, 97.5° (Epoch: 16 January)

Date Brightness Start Highest point End Pass type
(mag) Time Alt. Az. Time Alt. Az. Time Alt. Az.
17 Jan ? 06:01:02 10° NE 06:04:11 26° E 06:07:20 10° SSE visible
17 Jan ? 18:11:40 10° S 18:15:24 53° W 18:19:08 10° NNW visible
18 Jan ? 05:47:16 10° NE 05:49:47 17° E 05:52:16 10° SE visible
19 Jan ? 05:34:12 10° ENE 05:35:21 11° E 05:36:29 10° ESE visible
19 Jan ? 07:06:07 10° N 07:09:34 36° WNW 07:12:59 10° SW visible
20 Jan ? 06:51:37 10° N 06:55:17 58° WNW 06:58:55 10° SSW visible
20 Jan ? 19:05:19 10° WSW 19:06:42 12° W 19:08:03 10° WNW visible
21 Jan ? 06:37:14 10° NNE 06:40:58 86° ESE 06:44:40 10° SSW visible
21 Jan ? 18:49:38 10° SW 18:52:15 18° W 18:54:53 10° NW visible
22 Jan ? 06:22:58 10° NNE 06:26:37 53° E 06:30:14 10° S visible
22 Jan ? 18:34:36 10° SSW 18:37:51 26° W 18:41:06 10° NW visible
23 Jan ? 06:08:51 10° NNE 06:12:15 33° E 06:15:37 10° SSE visible
23 Jan ? 18:19:52 10° S 18:23:28 41° W 18:27:03 10° NNW visible
24 Jan ? 05:54:56 10° NE 05:57:51 22° E 06:00:44 10° SSE visible
25 Jan ? 05:41:21 10° ENE 05:43:25 14° E 05:45:27 10° SE visible
26 Jan ? 06:59:41 10° N 07:03:15 44° WNW 07:06:46 10° SSW visible
